Liverpool, United Kingdom

11:17 PM BST on October 21, 2017 (GMT +0100)
Liverpool

Weather History for EGGP - October, 2012

Change the Weather History Date:

Friday, October 12, 2012

  Actual Average Record
Temperature  
Mean Temperature 50 °F -  
Max Temperature 55 °F 52 °F 66 °F (2001)
Min Temperature 44 °F 43 °F 37 °F (2014)
Degree Days  
Heating Degree Days 16    
Moisture  
Dew Point 45 °F    
Average Humidity 82    
Maximum Humidity 100    
Minimum Humidity 67    
Precipitation  
Precipitation 0.00 in - - ()
Sea Level Pressure  
Sea Level Pressure 29.60 in    
Wind  
Wind Speed 17 mph ()    
Max Wind Speed 28 mph    
Max Gust Speed 34 mph    
Visibility 5.7 miles    
Events Rain    
Averages and records for this station are not official NWS values.
T = Trace of Precipitation, MM = Missing Value Source: Averaged Metar Reports

Daily Weather History Graph

Daily Weather History Graph

Search for Another Location

Airport or City:

Trip Planner

Search our weather history database for the weather conditions in past years. The results will help you decide how hot, cold, wet, or windy it might be!

Date:

Astronomy

Oct. 12, 2012 Rise Set
Actual Time 7:33 AM BST 6:21 PM BST
Civil Twilight 6:58 AM BST 6:56 PM BST
Nautical Twilight 6:17 AM BST 7:36 PM BST
Astronomical Twilight 5:37 AM BST 8:16 PM BST
Moon 3:35 AM BST (10/12) 4:43 PM BST (10/12)
Length of Visible Light 11h 58m
Length of Day
10h 48m
Waning Crescent, 12% of the Moon is Illuminated
Oct 12
Waning Crescent
Oct 15
New
Oct 22
First Quarter
Oct 29
Full
Nov 7
Last Quarter

Hourly Weather History & Observations

Time (BST) Temp. Windchill Dew Point Humidity Pressure Visibility Wind Dir Wind Speed Gust Speed Precip Events Conditions
12:20 AM 55.4 °F - 53.6 °F 94% 29.44 in 5.0 mi West 11.5 mph - N/A Rain Light Rain
12:50 AM 53.6 °F - 53.6 °F 100% 29.44 in 5.0 mi West 13.8 mph - N/A Rain Light Rain
1:20 AM 53.6 °F - 53.6 °F 100% 29.44 in 5.0 mi WNW 17.3 mph - N/A Rain Light Rain
1:50 AM 53.6 °F - 51.8 °F 94% 29.47 in 5.0 mi WNW 19.6 mph - N/A Rain Light Rain
2:20 AM 53.6 °F - 50.0 °F 88% 29.47 in 5.0 mi WNW 18.4 mph - N/A Rain Light Rain
2:50 AM 51.8 °F - 50.0 °F 94% 29.47 in 5.0 mi WNW 23.0 mph - N/A Rain Light Rain
3:20 AM 51.8 °F - 50.0 °F 94% 29.47 in 5.0 mi WNW 25.3 mph - N/A Rain Light Rain
3:50 AM 51.8 °F - 50.0 °F 94% 29.50 in 3.7 mi WNW 23.0 mph 34.5 mph N/A Rain Light Rain
4:20 AM 50.0 °F - 48.2 °F 94% 29.50 in 3.7 mi WNW 23.0 mph - N/A Rain Light Rain
4:50 AM 51.8 °F - 48.2 °F 88% 29.50 in 3.7 mi WNW 24.2 mph - N/A Rain Light Rain
5:20 AM 50.0 °F - 48.2 °F 94% 29.53 in 3.7 mi WNW 21.9 mph 34.5 mph N/A Rain Light Rain
5:50 AM 51.8 °F - 46.4 °F 82% 29.53 in 6.2 mi WNW 26.5 mph - N/A   Scattered Clouds
6:20 AM 51.8 °F - 46.4 °F 82% 29.53 in 6.2 mi WNW 26.5 mph - N/A Rain Light Rain Showers
6:50 AM 51.8 °F - 44.6 °F 76% 29.56 in 6.2 mi WNW 27.6 mph - N/A Rain Light Rain Showers
7:20 AM 51.8 °F - 42.8 °F 71% 29.56 in 6.2 mi WNW 25.3 mph - N/A Rain Light Rain Showers
7:50 AM 50.0 °F - 42.8 °F 76% 29.59 in 6.2 mi WNW 25.3 mph - N/A Rain Light Rain Showers
8:50 AM 50.0 °F - 42.8 °F 76% 29.59 in 6.2 mi West 24.2 mph - N/A   Scattered Clouds
9:20 AM 51.8 °F - 42.8 °F 71% 29.62 in 6.2 mi West 23.0 mph - N/A   Scattered Clouds
9:50 AM 51.8 °F - 44.6 °F 76% 29.62 in 6.2 mi West 19.6 mph - N/A   Scattered Clouds
10:20 AM 51.8 °F - 46.4 °F 82% 29.65 in 6.2 mi West 18.4 mph - N/A Rain Light Rain Showers
10:50 AM 51.8 °F - 44.6 °F 76% 29.65 in 6.2 mi West 20.7 mph - N/A   Scattered Clouds
11:20 AM 48.2 °F - 46.4 °F 93% 29.65 in 6.2 mi West 17.3 mph - N/A   Scattered Clouds
11:50 AM 51.8 °F - 46.4 °F 82% 29.65 in 6.2 mi West 20.7 mph - N/A Rain Light Rain Showers
12:20 PM 50.0 °F - 46.4 °F 87% 29.65 in 6.2 mi WNW 17.3 mph 28.8 mph N/A Rain Light Rain Showers
12:50 PM 51.8 °F - 44.6 °F 76% 29.65 in 6.2 mi West 23.0 mph - N/A   Scattered Clouds
1:20 PM 53.6 °F - 44.6 °F 72% 29.65 in 6.2 mi West 23.0 mph - N/A   Scattered Clouds
1:50 PM 53.6 °F - 42.8 °F 67% 29.65 in 6.2 mi West 24.2 mph - N/A   Partly Cloudy
2:20 PM 53.6 °F - 42.8 °F 67% 29.65 in 6.2 mi West 23.0 mph - N/A   Partly Cloudy
2:50 PM 53.6 °F - 42.8 °F 67% 29.65 in 6.2 mi West 21.9 mph - N/A   Partly Cloudy
3:50 PM 50.0 °F - 41.0 °F 71% 29.68 in 6.2 mi West 20.7 mph - N/A   Partly Cloudy
4:20 PM 51.8 °F - 41.0 °F 67% 29.68 in 6.2 mi West 19.6 mph - N/A   Partly Cloudy
4:50 PM 51.8 °F - 42.8 °F 71% 29.68 in 6.2 mi West 15.0 mph - N/A   Partly Cloudy
5:20 PM 51.8 °F - 41.0 °F 67% 29.68 in 6.2 mi West 15.0 mph - N/A   Partly Cloudy
6:20 PM 48.2 °F - 41.0 °F 76% 29.68 in 6.2 mi WSW 10.4 mph - N/A   Partly Cloudy
7:50 PM 48.2 °F - 41.0 °F 76% 29.68 in 6.2 mi SW 8.1 mph - N/A   Partly Cloudy
8:20 PM 46.4 °F 41.9 °F 41.0 °F 81% 29.68 in 6.2 mi SSW 9.2 mph - N/A   Partly Cloudy
8:50 PM 48.2 °F - 42.8 °F 82% 29.68 in 6.2 mi SSW 9.2 mph - N/A   Partly Cloudy
9:20 PM 46.4 °F 41.1 °F 42.8 °F 87% 29.68 in 6.2 mi SSW 11.5 mph - N/A   Partly Cloudy
9:50 PM 46.4 °F 41.5 °F 41.0 °F 81% 29.68 in - South 10.4 mph - N/A   Clear
10:20 PM 44.6 °F 39.7 °F 41.0 °F 87% 29.68 in - SSW 9.2 mph - N/A   Clear
10:50 PM 44.6 °F 39.2 °F 41.0 °F 87% 29.65 in - South 10.4 mph - N/A   Clear
11:50 PM 44.6 °F 42.2 °F 41.0 °F 87% 29.65 in - SSE 4.6 mph - N/A   Clear